Weather History for KDEC - October, 2011

Change the Weather History Date:

Monday, October 31, 2011

  Actual Average Record
Temperature  
Mean Temperature 43 °F 50 °F  
Max Temperature 54 °F 60 °F 75 °F (1999)
Min Temperature 31 °F 40 °F 30 °F (1996)
Degree Days  
Heating Degree Days 22 16  
Month to date heating degree days 295 346  
Since 1 July heating degree days 400 418  
Cooling Degree Days 0 0  
Month to date cooling degree days 4 19  
Year to date cooling degree days 1327 1048  
Moisture  
Dew Point 35 °F    
Average Humidity 73    
Maximum Humidity 100    
Minimum Humidity 46    
Precipitation  
Precipitation 0.00 in 0.11 in 1.65 in (2013)
Month to date precipitation 1.65 3.28  
Year to date precipitation 28.20 32.48  
Sea Level Pressure  
Sea Level Pressure 30.09 in    
Wind  
Wind Speed 5 mph (WSW)    
Max Wind Speed 14 mph    
Max Gust Speed 18 mph    
Visibility 8 miles    
Events      
T = Trace of Precipitation, MM = Missing Value Source: NWS Daily Summary

Daily Weather History Graph

Daily Weather History Graph

Search for Another Location

Airport or City:

Trip Planner

Search our weather history database for the weather conditions in past years. The results will help you decide how hot, cold, wet, or windy it might be!

Date:

Astronomy

Oct. 31, 2011 Rise Set
Actual Time 7:22 AM CDT 5:54 PM CDT
Civil Twilight 6:54 AM CDT 6:22 PM CDT
Nautical Twilight 6:22 AM CDT 6:54 PM CDT
Astronomical Twilight 5:51 AM CDT 7:25 PM CDT
Moon 12:29 PM CDT (10/31) 10:30 PM CDT (10/31)
Length of Visible Light 11h 27m
Length of Day
10h 31m
Waxing Crescent, 30% of the Moon is Illuminated
Oct 31
Waxing Crescent
Nov 2
First Quarter
Nov 10
Full
Nov 18
Last Quarter
Nov 25
New

Hourly Weather History & Observations

Time (CDT) Temp. Windchill Dew Point Humidity Pressure Visibility Wind Dir Wind Speed Gust Speed Precip Events Conditions
12:54 AM 39.9 °F 36.7 °F 39.9 °F 100% 30.03 in 3.0 mi South 4.6 mph - N/A   Partly Cloudy
12:56 AM 39.2 °F 37.0 °F 39.2 °F 100% 30.02 in 1.5 mi South 3.5 mph - N/A   Partly Cloudy
1:05 AM 41.0 °F 39.0 °F 39.2 °F 93% 30.02 in 0.8 mi SSW 3.5 mph - N/A   Partly Cloudy
1:11 AM 41.0 °F 39.0 °F 39.2 °F 93% 30.02 in 2.0 mi SSW 3.5 mph - N/A   Partly Cloudy
1:19 AM 42.8 °F 41.1 °F 41.0 °F 93% 30.02 in 7.0 mi SW 3.5 mph - N/A   Partly Cloudy
1:54 AM 39.0 °F 35.7 °F 37.9 °F 96% 30.04 in 6.0 mi SSW 4.6 mph - N/A   Clear
2:54 AM 39.0 °F 34.0 °F 37.0 °F 93% 30.04 in 9.0 mi SW 6.9 mph - N/A   Clear
3:54 AM 39.0 °F 33.4 °F 37.9 °F 96% 30.03 in 10.0 mi SW 8.1 mph - N/A   Mostly Cloudy
4:54 AM 37.9 °F - 37.0 °F 97% 30.03 in 10.0 mi Calm Calm - N/A   Scattered Clouds
5:54 AM 37.4 °F 34.9 °F 35.6 °F 93% 30.02 in 9.0 mi SW 3.5 mph - N/A   Clear
6:54 AM 35.1 °F 30.1 °F 33.1 °F 92% 30.04 in 10.0 mi WSW 5.8 mph - N/A   Clear
7:54 AM 35.1 °F 32.2 °F 33.1 °F 92% 30.05 in 10.0 mi West 3.5 mph - 0.01 in   Clear
8:54 AM 42.1 °F 38.4 °F 36.0 °F 79% 30.06 in 10.0 mi WNW 5.8 mph - N/A   Clear
9:54 AM 45.0 °F 39.7 °F 35.1 °F 68% 30.09 in 10.0 mi WNW 10.4 mph - N/A   Clear
10:54 AM 48.0 °F - 37.0 °F 66% 30.10 in 10.0 mi NW 9.2 mph - N/A   Clear
11:54 AM 50.0 °F - 39.0 °F 66% 30.11 in 10.0 mi WNW 10.4 mph - N/A   Clear
12:54 PM 51.1 °F - 35.1 °F 54% 30.12 in 10.0 mi WNW 13.8 mph 18.4 mph N/A   Clear
1:54 PM 53.1 °F - 35.1 °F 50% 30.11 in 10.0 mi WNW 9.2 mph - N/A   Clear
2:54 PM 52.0 °F - 34.0 °F 50% 30.12 in 10.0 mi WNW 10.4 mph - N/A   Scattered Clouds
3:54 PM 53.1 °F - 33.1 °F 47% 30.12 in 10.0 mi Variable 5.8 mph - N/A   Clear
4:54 PM 51.8 °F - 33.8 °F 50% 30.11 in 10.0 mi NW 5.8 mph - N/A   Clear
5:54 PM 51.1 °F - 33.1 °F 50% 30.14 in 10.0 mi Calm Calm - N/A   Clear
6:54 PM 43.0 °F - 32.0 °F 65% 30.16 in 10.0 mi Calm Calm - N/A   Clear
7:54 PM 37.0 °F 34.5 °F 30.9 °F 79% 30.17 in 10.0 mi East 3.5 mph - N/A   Clear
8:54 PM 37.4 °F - 30.2 °F 75% 30.16 in 10.0 mi Calm Calm - N/A   Clear
9:54 PM 35.1 °F - 30.0 °F 82% 30.19 in 10.0 mi Calm Calm - N/A   Clear
10:54 PM 34.0 °F - 28.0 °F 79% 30.19 in 10.0 mi Calm Calm - N/A   Clear
11:54 PM 33.1 °F 30.0 °F 28.0 °F 82% 30.17 in 10.0 mi ESE 3.5 mph - N/A   Clear